| time (UTC) | temp C | wind direction | speed KPH | gust KPH | rain 1hr cm | rain 24hr cm | rain mn cm | humidity % | barometer mb |
| 20260831230204 | 15 | 283 | 3.2 | 11.3 | 0.00 | 0.03 | 0.00 | 77 | 1019.2 |
| 20260831224204 | 15 | 276 | 3.2 | 8.0 | 0.00 | 0.03 | 0.03 | 77 | 1019.3 |
| 20260831223704 | 16 | 269 | 6.4 | 9.7 | 0.00 | 0.03 | 0.03 | 77 | 1019.2 |
| 20260831223204 | 16 | 275 | 6.4 | 12.9 | 0.00 | 0.03 | 0.03 | 78 | 1019.2 |
| 20260831221704 | 16 | 288 | 0.0 | 3.2 | 0.00 | 0.03 | 0.03 | 78 | 1019.1 |
| 20260831221204 | 16 | 288 | 0.0 | 1.6 | 0.00 | 0.03 | 0.03 | 78 | 1019.1 |
| 20260831220703 | 16 | 288 | 0.0 | 1.6 | 0.00 | 0.03 | 0.03 | 78 | 1019.1 |
| 20260831220205 | 16 | 289 | 0.0 | 8.0 | 0.00 | 0.03 | 0.03 | 77 | 1018.9 |
| 20260831214704 | 16 | 277 | 1.6 | 8.0 | 0.00 | 0.03 | 0.03 | 77 | 1018.8 |
| 20260831214204 | 16 | 271 | 0.0 | 3.2 | 0.00 | 0.03 | 0.03 | 77 | 1018.9 |
| 20260831213704 | 16 | 271 | 0.0 | 3.2 | 0.00 | 0.03 | 0.03 | 77 | 1018.8 |
| 20260831213203 | 16 | 270 | 0.0 | 3.2 | 0.00 | 0.03 | 0.03 | 77 | 1018.8 |
| 20260831211704 | 16 | 269 | 0.0 | 1.6 | 0.00 | 0.03 | 0.03 | 76 | 1018.6 |
| 20260831211203 | 16 | 273 | 1.6 | 4.8 | 0.00 | 0.03 | 0.03 | 75 | 1018.5 |
| 20260831210704 | 16 | 288 | 0.0 | 1.6 | 0.00 | 0.03 | 0.03 | 75 | 1018.4 |
| 20260831210204 | 17 | 286 | 3.2 | 8.0 | 0.00 | 0.03 | 0.03 | 75 | 1018.4 |
| 20260831204204 | 17 | 278 | 0.0 | 0.0 | 0.00 | 0.03 | 0.03 | 74 | 1018.3 |
| 20260831203704 | 17 | 279 | 0.0 | 3.2 | 0.00 | 0.03 | 0.03 | 74 | 1018.3 |
| 20260831201704 | 17 | 290 | 1.6 | 8.0 | 0.00 | 0.03 | 0.03 | 73 | 1018.1 |
| 20260831201203 | 17 | 278 | 1.6 | 4.8 | 0.00 | 0.05 | 0.03 | 73 | 1018.1 |
| 20260831200703 | 17 | 237 | 1.6 | 4.8 | 0.00 | 0.08 | 0.03 | 73 | 1018.0 |
| 20260831200204 | 17 | 258 | 3.2 | 8.0 | 0.00 | 0.08 | 0.03 | 73 | 1017.9 |
| 20260831194703 | 17 | 273 | 0.0 | 1.6 | 0.00 | 0.08 | 0.03 | 73 | 1017.7 |
| 20260831194203 | 17 | 274 | 0.0 | 1.6 | 0.00 | 0.08 | 0.03 | 73 | 1017.6 |
| 20260831193705 | 17 | 274 | 0.0 | 3.2 | 0.00 | 0.08 | 0.03 | 73 | 1017.5 |
| 20260831191205 | 18 | 292 | 4.8 | 12.9 | 0.00 | 0.08 | 0.03 | 71 | 1016.9 |
| 20260831190703 | 18 | 297 | 3.2 | 8.0 | 0.00 | 0.08 | 0.03 | 71 | 1016.9 |
| 20260831190204 | 18 | 246 | 3.2 | 14.5 | 0.00 | 0.08 | 0.03 | 71 | 1016.9 |
| 20260831184704 | 18 | 282 | 8.0 | 12.9 | 0.00 | 0.08 | 0.03 | 71 | 1016.8 |
| 20260831183704 | 18 | 295 | 8.0 | 14.5 | 0.00 | 0.08 | 0.03 | 71 | 1016.7 |
| 20260831183206 | 19 | 281 | 8.0 | 19.3 | 0.00 | 0.08 | 0.03 | 71 | 1016.7 |
| 20260831181704 | 19 | 290 | 8.0 | 19.3 | 0.00 | 0.08 | 0.03 | 70 | 1016.5 |
| 20260831181204 | 19 | 276 | 4.8 | 11.3 | 0.00 | 0.08 | 0.03 | 70 | 1016.5 |
| 20260831180704 | 19 | 290 | 3.2 | 16.1 | 0.00 | 0.08 | 0.03 | 70 | 1016.5 |
| 20260831180203 | 20 | 274 | 8.0 | 20.9 | 0.00 | 0.08 | 0.03 | 69 | 1016.4 |
| 20260831174704 | 20 | 278 | 6.4 | 20.9 | 0.00 | 0.08 | 0.03 | 68 | 1016.2 |
| 20260831174204 | 20 | 268 | 8.0 | 16.1 | 0.00 | 0.08 | 0.03 | 68 | 1016.2 |
| 20260831173704 | 20 | 283 | 8.0 | 20.9 | 0.00 | 0.08 | 0.03 | 68 | 1016.1 |
| 20260831173205 | 21 | 283 | 8.0 | 24.1 | 0.00 | 0.08 | 0.03 | 68 | 1016.0 |
| 20260831171704 | 21 | 281 | 4.8 | 19.3 | 0.00 | 0.08 | 0.03 | 67 | 1015.8 |
| 20260831171204 | 21 | 264 | 8.0 | 22.5 | 0.00 | 0.08 | 0.03 | 66 | 1015.7 |
| 20260831170705 | 21 | 264 | 6.4 | 27.4 | 0.00 | 0.08 | 0.03 | 66 | 1015.6 |
| 20260831170203 | 21 | 290 | 9.7 | 25.7 | 0.00 | 0.08 | 0.03 | 66 | 1015.5 |
| 20260831164704 | 21 | 262 | 8.0 | 19.3 | 0.00 | 0.08 | 0.03 | 68 | 1015.3 |
| 20260831164204 | 21 | 289 | 9.7 | 27.4 | 0.00 | 0.08 | 0.03 | 69 | 1015.3 |
| 20260831163705 | 21 | 266 | 8.0 | 22.5 | 0.00 | 0.08 | 0.03 | 68 | 1015.2 |
| 20260831163204 | 21 | 255 | 6.4 | 24.1 | 0.00 | 0.08 | 0.03 | 68 | 1015.2 |
| 20260831161703 | 21 | 283 | 4.8 | 12.9 | 0.00 | 0.08 | 0.03 | 67 | 1015.0 |
| 20260831161204 | 21 | 293 | 3.2 | 8.0 | 0.00 | 0.08 | 0.03 | 67 | 1014.9 |
| 20260831160704 | 21 | 255 | 1.6 | 8.0 | 0.00 | 0.08 | 0.03 | 66 | 1014.8 |
| 20260831160204 | 22 | 280 | 3.2 | 19.3 | 0.00 | 0.08 | 0.03 | 66 | 1014.9 |
| 20260831154704 | 22 | 248 | 3.2 | 14.5 | 0.00 | 0.08 | 0.03 | 64 | 1014.7 |
| 20260831154204 | 22 | 246 | 4.8 | 14.5 | 0.00 | 0.08 | 0.03 | 64 | 1014.7 |
| 20260831153704 | 22 | 236 | 3.2 | 14.5 | 0.00 | 0.08 | 0.03 | 63 | 1014.7 |
| 20260831151704 | 23 | 276 | 4.8 | 14.5 | 0.00 | 0.08 | 0.03 | 59 | 1014.3 |
| 20260831151203 | 24 | 294 | 12.9 | 20.9 | 0.00 | 0.08 | 0.03 | 58 | 1014.2 |
| 20260831150703 | 24 | 210 | 9.7 | 24.1 | 0.00 | 0.08 | 0.03 | 57 | 1014.1 |
| 20260831150204 | 24 | 294 | 8.0 | 27.4 | 0.00 | 0.08 | 0.03 | 57 | 1014.0 |
| 20260831144704 | 24 | 293 | 11.3 | 20.9 | 0.00 | 0.08 | 0.03 | 58 | 1014.0 |
| 20260831144204 | 24 | 283 | 14.5 | 22.5 | 0.00 | 0.08 | 0.03 | 57 | 1014.0 |
| 20260831143704 | 23 | 284 | 14.5 | 24.1 | 0.00 | 0.08 | 0.03 | 60 | 1013.8 |
| 20260831143204 | 23 | 221 | 3.2 | 14.5 | 0.00 | 0.08 | 0.03 | 61 | 1013.7 |
| 20260831141703 | 24 | 213 | 6.4 | 16.1 | 0.00 | 0.08 | 0.03 | 58 | 1013.8 |
| 20260831141204 | 25 | 285 | 9.7 | 19.3 | 0.00 | 0.08 | 0.03 | 58 | 1013.8 |
| 20260831140704 | 25 | 289 | 4.8 | 16.1 | 0.00 | 0.08 | 0.03 | 59 | 1013.7 |
| 20260831140204 | 25 | 272 | 11.3 | 20.9 | 0.00 | 0.08 | 0.03 | 59 | 1013.6 |
| 20260831134704 | 23 | 247 | 4.8 | 19.3 | 0.00 | 0.08 | 0.03 | 63 | 1013.6 |
| 20260831134204 | 23 | 225 | 1.6 | 11.3 | 0.00 | 0.08 | 0.03 | 63 | 1013.5 |
| 20260831133204 | 22 | 282 | 14.5 | 22.5 | 0.00 | 0.08 | 0.03 | 62 | 1013.4 |
| 20260831131703 | 22 | 267 | 6.4 | 19.3 | 0.00 | 0.08 | 0.03 | 65 | 1013.2 |
| 20260831131204 | 22 | 262 | 4.8 | 16.1 | 0.00 | 0.08 | 0.03 | 66 | 1013.2 |
| 20260831130704 | 21 | 300 | 9.7 | 16.1 | 0.00 | 0.08 | 0.03 | 66 | 1013.2 |
| 20260831130203 | 21 | 297 | 9.7 | 25.7 | 0.00 | 0.08 | 0.03 | 65 | 1013.1 |
| 20260831124704 | 22 | 309 | 11.3 | 20.9 | 0.00 | 0.08 | 0.03 | 66 | 1013.0 |
| 20260831124203 | 22 | 302 | 11.3 | 20.9 | 0.00 | 0.08 | 0.03 | 66 | 1013.0 |
| 20260831123204 | 21 | 245 | 4.8 | 20.9 | 0.00 | 0.08 | 0.03 | 73 | 1012.8 |
| 20260831121704 | 21 | 310 | 8.0 | 16.1 | 0.00 | 0.08 | 0.03 | 71 | 1012.6 |
| 20260831121203 | 21 | 306 | 9.7 | 19.3 | 0.00 | 0.08 | 0.03 | 71 | 1012.6 |
| 20260831120204 | 21 | 305 | 9.7 | 25.7 | 0.00 | 0.08 | 0.03 | 68 | 1012.5 |
| 20260831114704 | 21 | 301 | 16.1 | 29.0 | 0.00 | 0.08 | 0.03 | 70 | 1012.3 |
| 20260831114204 | 21 | 293 | 9.7 | 20.9 | 0.00 | 0.08 | 0.03 | 71 | 1012.3 |
| 20260831113704 | 21 | 271 | 9.7 | 24.1 | 0.00 | 0.08 | 0.03 | 70 | 1012.2 |
| 20260831111704 | 21 | 279 | 6.4 | 27.4 | 0.00 | 0.08 | 0.03 | 72 | 1011.7 |
| 20260831111204 | 20 | 268 | 6.4 | 19.3 | 0.00 | 0.08 | 0.03 | 74 | 1011.7 |
| 20260831104703 | 19 | 285 | 14.5 | 25.7 | 0.03 | 0.08 | 0.03 | 78 | 1011.3 |
| 20260831103204 | 20 | 307 | 14.5 | 25.7 | 0.03 | 0.08 | 0.03 | 79 | 1011.2 |
| 20260831101703 | 19 | 293 | 11.3 | 19.3 | 0.03 | 0.08 | 0.03 | 83 | 1010.9 |
| 20260831101204 | 19 | 274 | 4.8 | 14.5 | 0.03 | 0.08 | 0.03 | 81 | 1010.8 |
| 20260831100703 | 20 | 242 | 3.2 | 20.9 | 0.00 | 0.05 | 0.00 | 77 | 1010.8 |
| 20260831094704 | 19 | 212 | 4.8 | 16.1 | 0.00 | 0.05 | 0.00 | 78 | 1010.6 |
| 20260831093704 | 18 | 267 | 6.4 | 19.3 | 0.00 | 0.05 | 0.00 | 81 | 1010.6 |
| 20260831093204 | 18 | 299 | 8.0 | 27.4 | 0.00 | 0.05 | 0.00 | 82 | 1010.4 |
| 20260831091705 | 17 | 290 | 8.0 | 19.3 | 0.00 | 0.05 | 0.00 | 83 | 1010.3 |
| 20260831091203 | 17 | 296 | 9.7 | 19.3 | 0.00 | 0.05 | 0.00 | 84 | 1010.3 |
| 20260831090205 | 17 | 270 | 11.3 | 22.5 | 0.00 | 0.05 | 0.00 | 84 | 1010.2 |
| 20260831084704 | 17 | 288 | 3.2 | 16.1 | 0.00 | 0.05 | 0.00 | 86 | 1009.9 |
| 20260831084204 | 17 | 274 | 4.8 | 19.3 | 0.00 | 0.05 | 0.00 | 86 | 1009.9 |
| 20260831083204 | 17 | 259 | 4.8 | 20.9 | 0.00 | 0.05 | 0.00 | 87 | 1009.7 |
| 20260831081703 | 16 | 204 | 3.2 | 11.3 | 0.00 | 0.05 | 0.00 | 89 | 1009.5 |
| 20260831081204 | 16 | 186 | 6.4 | 16.1 | 0.00 | 0.05 | 0.00 | 89 | 1009.4 |
| 20260831080203 | 16 | 238 | 3.2 | 19.3 | 0.00 | 0.05 | 0.00 | 90 | 1009.3 |
| 20260831074704 | 15 | 244 | 4.8 | 8.0 | 0.00 | 0.05 | 0.00 | 91 | 1009.0 |
| 20260831074204 | 15 | 179 | 3.2 | 11.3 | 0.00 | 0.05 | 0.00 | 91 | 1009.0 |
| 20260831073704 | 15 | 244 | 4.8 | 14.5 | 0.00 | 0.05 | 0.00 | 91 | 1008.9 |
| 20260831073203 | 15 | 284 | 6.4 | 14.5 | 0.00 | 0.05 | 0.00 | 91 | 1008.9 |
| 20260831071704 | 14 | 210 | 3.2 | 12.9 | 0.00 | 0.05 | 0.00 | 92 | 1008.7 |
| 20260831071203 | 14 | 228 | 3.2 | 14.5 | 0.00 | 0.05 | 0.00 | 92 | 1008.7 |
| 20260831070704 | 14 | 221 | 4.8 | 12.9 | 0.00 | 0.05 | 0.00 | 92 | 1008.7 |
| 20260831070204 | 14 | 180 | 4.8 | 14.5 | 0.00 | 0.05 | 0.00 | 92 | 1008.5 |
| 20260831064704 | 13 | 246 | 3.2 | 11.3 | 0.00 | 0.05 | 0.00 | 92 | 1008.5 |
| 20260831064204 | 13 | 232 | 6.4 | 12.9 | 0.00 | 0.05 | 0.00 | 93 | 1008.4 |
| 20260831063704 | 13 | 204 | 3.2 | 11.3 | 0.00 | 0.05 | 0.00 | 93 | 1008.3 |
| 20260831063204 | 13 | 204 | 1.6 | 11.3 | 0.00 | 0.05 | 0.00 | 93 | 1008.2 |
| 20260831061704 | 13 | 171 | 1.6 | 11.3 | 0.00 | 0.05 | 0.00 | 93 | 1008.0 |
| 20260831061204 | 13 | 200 | 1.6 | 4.8 | 0.00 | 0.05 | 0.00 | 93 | 1007.9 |
| 20260831060704 | 13 | 234 | 3.2 | 8.0 | 0.00 | 0.05 | 0.00 | 93 | 1007.8 |
| 20260831060204 | 13 | 205 | 1.6 | 9.7 | 0.00 | 0.05 | 0.00 | 92 | 1007.7 |
| 20260831054704 | 13 | 160 | 1.6 | 3.2 | 0.00 | 0.05 | 0.00 | 92 | 1007.5 |
| 20260831053704 | 13 | 238 | 1.6 | 4.8 | 0.00 | 0.05 | 0.00 | 92 | 1007.4 |
| 20260831053204 | 13 | 244 | 1.6 | 12.9 | 0.00 | 0.05 | 0.00 | 92 | 1007.3 |
| 20260831051704 | 13 | 259 | 3.2 | 8.0 | 0.00 | 0.05 | 0.00 | 92 | 1007.1 |
| 20260831051204 | 13 | 251 | 3.2 | 11.3 | 0.00 | 0.05 | 0.00 | 92 | 1007.0 |
| 20260831050704 | 13 | 285 | 1.6 | 8.0 | 0.00 | 0.05 | 0.00 | 92 | 1007.0 |
| 20260831050204 | 13 | 161 | 1.6 | 8.0 | 0.00 | 0.05 | 0.00 | 91 | 1006.9 |
| 20260831044703 | 13 | 222 | 3.2 | 11.3 | 0.00 | 0.05 | 0.00 | 91 | 1006.6 |
| 20260831044204 | 13 | 213 | 3.2 | 8.0 | 0.00 | 0.05 | 0.00 | 91 | 1006.5 |
| 20260831043703 | 13 | 241 | 3.2 | 8.0 | 0.00 | 0.05 | 0.00 | 91 | 1006.5 |
| 20260831041704 | 13 | 166 | 1.6 | 8.0 | 0.00 | 0.05 | 0.00 | 91 | 1006.3 |
| 20260831041203 | 13 | 163 | 3.2 | 11.3 | 0.00 | 0.05 | 0.00 | 91 | 1006.3 |
| 20260831040704 | 13 | 175 | 3.2 | 12.9 | 0.00 | 0.05 | 0.00 | 90 | 1006.2 |
| 20260831040204 | 13 | 182 | 3.2 | 11.3 | 0.00 | 0.05 | 0.00 | 91 | 1006.2 |
| 20260831034703 | 13 | 191 | 3.2 | 12.9 | 0.00 | 0.05 | 0.00 | 90 | 1006.2 |
| 20260831033204 | 14 | 182 | 1.6 | 16.1 | 0.00 | 0.05 | 0.00 | 90 | 1006.1 |
| 20260831031204 | 14 | 185 | 3.2 | 9.7 | 0.00 | 0.05 | 0.00 | 89 | 1006.0 |
| 20260831030704 | 15 | 206 | 3.2 | 9.7 | 0.00 | 0.05 | 0.00 | 89 | 1006.0 |
| 20260831024704 | 15 | 208 | 3.2 | 8.0 | 0.00 | 0.05 | 0.00 | 89 | 1005.8 |
| 20260831024204 | 15 | 245 | 3.2 | 14.5 | 0.00 | 0.05 | 0.00 | 89 | 1005.6 |
| 20260831023704 | 15 | 200 | 4.8 | 12.9 | 0.00 | 0.05 | 0.00 | 89 | 1005.5 |
| 20260831021703 | 15 | 202 | 3.2 | 8.0 | 0.00 | 0.05 | 0.00 | 89 | 1005.4 |
| 20260831021204 | 15 | 219 | 4.8 | 11.3 | 0.00 | 0.05 | 0.00 | 90 | 1005.3 |
| 20260831020205 | 15 | 185 | 9.7 | 19.3 | 0.00 | 0.05 | 0.00 | 90 | 1005.2 |
| 20260831014703 | 15 | 245 | 4.8 | 16.1 | 0.00 | 0.05 | 0.00 | 91 | 1005.0 |
| 20260831014205 | 15 | 185 | 4.8 | 12.9 | 0.00 | 0.05 | 0.00 | 91 | 1005.1 |
| 20260831013705 | 15 | 205 | 3.2 | 19.3 | 0.00 | 0.05 | 0.00 | 91 | 1005.1 |
| 20260831013206 | 15 | 178 | 8.0 | 20.9 | 0.00 | 0.05 | 0.00 | 91 | 1005.0 |
| 20260831011703 | 15 | 188 | 8.0 | 14.5 | 0.00 | 0.05 | 0.00 | 91 | 1005.1 |
| 20260831011204 | 15 | 210 | 11.3 | 20.9 | 0.00 | 0.05 | 0.00 | 92 | 1005.1 |
| 20260831010703 | 15 | 189 | 9.7 | 20.9 | 0.00 | 0.05 | 0.00 | 92 | 1005.1 |
| 20260831004704 | 15 | 181 | 8.0 | 20.9 | 0.00 | 0.05 | 0.00 | 92 | 1004.8 |
| 20260831004204 | 15 | 169 | 11.3 | 16.1 | 0.00 | 0.05 | 0.00 | 92 | 1004.6 |
| 20260831003203 | 15 | 166 | 11.3 | 20.9 | 0.00 | 0.05 | 0.00 | 93 | 1004.6 |
| 20260831001204 | 15 | 176 | 9.7 | 22.5 | 0.00 | 0.05 | 0.00 | 93 | 1004.8 |
| 20260830234703 | 15 | 169 | 11.3 | 16.1 | 0.00 | 0.05 | 0.00 | 93 | 1005.2 |
| 20260830233704 | 15 | 171 | 11.3 | 16.1 | 0.00 | 0.05 | 0.00 | 93 | 1005.4 |
| 20260830233204 | 15 | 173 | 9.7 | 24.1 | 0.00 | 0.05 | 0.00 | 93 | 1005.4 |
| 20260830231703 | 15 | 170 | 9.7 | 12.9 | 0.00 | 0.05 | 0.00 | 92 | 1005.4 |